Weather History for EIKN - October, 2013

Change the Weather History Date:

Tuesday, October 1, 2013

  Actual Average Record
Temperature  
Mean Temperature 58 °F -  
Max Temperature 61 °F - - ()
Min Temperature 55 °F - - ()
Degree Days  
Heating Degree Days 8    
Growing Degree Days 8 (Base 50)    
Moisture  
Dew Point 57 °F    
Average Humidity 98    
Maximum Humidity 100    
Minimum Humidity 94    
Precipitation  
Precipitation 0.16 in - - ()
Sea Level Pressure  
Sea Level Pressure 29.56 in    
Wind  
Wind Speed 14 mph ()    
Max Wind Speed 18 mph    
Max Gust Speed 28 mph    
Visibility 5.0 miles    
Events Rain    
T = Trace of Precipitation, MM = Missing Value Source: Averaged Metar Reports

Daily Weather History Graph

Daily Weather History Graph

Search for Another Location

Airport or City:

Trip Planner

Search our weather history database for the weather conditions in past years. The results will help you decide how hot, cold, wet, or windy it might be!

Date:

Astronomy

Oct. 01, 2013 Rise Set
Actual Time 7:37 AM IST 7:11 PM IST
Civil Twilight 7:02 AM IST 7:46 PM IST
Nautical Twilight 6:20 AM IST 8:27 PM IST
Astronomical Twilight 5:38 AM IST 9:09 PM IST
Moon 3:31 AM IST (10/1) 5:30 PM IST (10/1)
Length of Visible Light 12h 44m
Length of Day
11h 34m
Waning Crescent, 13% of the Moon is Illuminated
Oct 1
Waning Crescent
Oct 5
New
Oct 12
First Quarter
Oct 19
Full
Oct 27
Last Quarter

Hourly Weather History & Observations

Time (IST) Temp. Dew Point Humidity Pressure Visibility Wind Dir Wind Speed Gust Speed Precip Events Conditions
1:00 AM 57 °F 56 °F 96% 29.60 in - ESE 15.7 mph - -  
6:00 AM 57.2 °F 57.2 °F 100% 29.56 in 6.2 mi ESE 13.8 mph - N/A   Overcast
7:00 AM 57 °F 56 °F 96% 29.57 in 7 mi ESE 15.7 mph - -   Mist
7:00 AM 57.2 °F 55.4 °F 94% 29.56 in 6.2 mi ESE 16.1 mph - N/A   Overcast
7:30 AM 57.2 °F 55.4 °F 94% 29.56 in 3.1 mi ESE 16.1 mph - N/A   Overcast
8:00 AM 57.2 °F 55.4 °F 94% 29.56 in 2.5 mi ESE 16.1 mph - N/A   Overcast
8:30 AM 55.4 °F 55.4 °F 100% 29.56 in 5.0 mi ESE 16.1 mph 27.6 mph N/A   Light Drizzle
9:00 AM 55.4 °F 55.4 °F 100% 29.56 in 4.3 mi ESE 18.4 mph - N/A   Light Drizzle
9:30 AM 55.4 °F 55.4 °F 100% 29.56 in - ESE 16.1 mph - N/A   Light Drizzle
10:00 AM 55.4 °F 55.4 °F 100% 29.56 in 3.7 mi ESE 15.0 mph - N/A   Light Drizzle
10:30 AM 55.4 °F 55.4 °F 100% 29.56 in 6.2 mi ESE 16.1 mph - N/A   Light Drizzle
11:00 AM 55.4 °F 55.4 °F 100% 29.56 in 5.6 mi ESE 15.0 mph - N/A Rain Light Rain
11:30 AM 55.4 °F 55.4 °F 100% 29.56 in 5.0 mi ESE 15.0 mph - N/A Rain Light Rain
12:00 PM 55.4 °F 55.4 °F 100% 29.56 in 3.1 mi ESE 13.8 mph - N/A   Light Drizzle
12:30 PM 55.4 °F 55.4 °F 100% 29.56 in 5.0 mi ESE 15.0 mph - N/A   Overcast
1:00 PM 57 °F 56 °F 97% 29.57 in 3 mi ESE 15.7 mph - - Rain Light Rain
1:00 PM 57.2 °F 57.2 °F 100% 29.56 in 3.1 mi ESE 16.1 mph - N/A Rain Light Rain
1:30 PM 57.2 °F 57.2 °F 100% 29.56 in 3.1 mi ESE 15.0 mph - N/A Rain Light Rain
2:00 PM 57.2 °F 57.2 °F 100% 29.56 in 4.3 mi ESE 15.0 mph - N/A Rain Light Rain
2:30 PM 57.2 °F 57.2 °F 100% 29.56 in 1.6 mi ESE 12.7 mph - N/A Rain Light Rain
3:00 PM 59.0 °F 59.0 °F 100% 29.53 in 6.2 mi SE 13.8 mph - N/A   Mostly Cloudy
3:30 PM 59.0 °F 59.0 °F 100% 29.53 in 6.2 mi SE 16.1 mph 27.6 mph N/A   Mostly Cloudy
4:00 PM 60.8 °F 59.0 °F 94% 29.53 in 6.2 mi SE 18.4 mph - N/A   Mostly Cloudy
4:30 PM 60.8 °F 59.0 °F 94% 29.53 in 6.2 mi SE 15.0 mph - N/A   Overcast
5:00 PM 59.0 °F 59.0 °F 100% 29.56 in 6.2 mi SE 12.7 mph - N/A   Overcast
5:30 PM 59.0 °F 57.2 °F 94% 29.56 in 6.2 mi SE 13.8 mph - N/A   Overcast
6:00 PM 59.0 °F 57.2 °F 94% 29.56 in 6.2 mi SE 15.0 mph - N/A   Overcast
7:00 PM 58 °F 57 °F 95% 29.56 in 9 mi ESE 15.7 mph - -   Partly Cloudy